Weather History for St. Joseph, MO

Change the Weather History Date:

Thursday, March 28, 2013

  Actual Average Record
Temperature  
Mean Temperature 46 °F 48 °F  
Max Temperature 63 °F 60 °F 84 °F (1968)
Min Temperature 28 °F 36 °F 16 °F (1921)
Degree Days  
Heating Degree Days 19 17  
Month to date heating degree days 816 635  
Since 1 July heating degree days 4920 4943  
Cooling Degree Days 0 0  
Month to date cooling degree days 0 0  
Year to date cooling degree days 0 0  
Moisture  
Dew Point 32 °F    
Average Humidity 56    
Maximum Humidity 78    
Minimum Humidity 34    
Precipitation  
Precipitation 0.00 in 0.10 in 3.01 in (1914)
Month to date precipitation 1.28 1.96  
Year to date precipitation 2.29 3.45  
Sea Level Pressure  
Sea Level Pressure 30.22 in    
Wind  
Wind Speed 4 mph (East)    
Max Wind Speed 13 mph    
Max Gust Speed 20 mph    
Visibility 10 miles    
Events      
T = Trace of Precipitation, MM = Missing Value Source: NWS Daily Summary

Daily Weather History Graph

Daily Weather History Graph

Search for Another Location

Airport:

Trip Planner

Search our weather history database for the weather conditions in past years. The results will help you decide how hot, cold, wet, or windy it might be!

Date:

Astronomy

Mar. 28, 2013 Rise Set
Actual Time 7:09 AM CDT 7:40 PM CDT
Civil Twilight 6:42 AM CDT 8:07 PM CDT
Nautical Twilight 6:10 AM CDT 8:39 PM CDT
Astronomical Twilight 5:38 AM CDT 9:11 PM CDT
Moon 9:32 PM CDT (3/28) 7:38 AM CDT (3/28)
Length of Visible Light 13h 24m
Length of Day
12h 30m
Full, 98% of the Moon is Illuminated
Mar 28
Full
Apr 2
Last Quarter
Apr 10
New
Apr 18
First Quarter
Apr 25
Full

Hourly Weather History & Observations

Time (CDT) Temp. Windchill Dew Point Humidity Pressure Visibility Wind Dir Wind Speed Gust Speed Precip Events Conditions
12:53 AM 36.0 °F 33.3 °F 28.0 °F 73% 30.28 in 10.0 mi East 3.5 mph - N/A   Clear
1:53 AM 33.1 °F - 26.1 °F 75% 30.27 in 10.0 mi Calm Calm - N/A   Clear
2:53 AM 33.1 °F - 26.1 °F 75% 30.26 in 10.0 mi Calm Calm - N/A   Clear
3:53 AM 30.0 °F - 25.0 °F 82% 30.25 in 10.0 mi Calm Calm - N/A   Clear
4:53 AM 30.0 °F - 25.0 °F 82% 30.24 in 10.0 mi Calm Calm - N/A   Clear
5:53 AM 34.0 °F - 27.0 °F 75% 30.25 in 10.0 mi Calm Calm - N/A   Clear
6:53 AM 32.0 °F 27.5 °F 26.1 °F 79% 30.25 in 10.0 mi East 4.6 mph - N/A   Clear
7:53 AM 35.1 °F - 28.0 °F 76% 30.26 in 10.0 mi Calm Calm - N/A   Clear
8:53 AM 37.9 °F 33.5 °F 30.0 °F 73% 30.27 in 10.0 mi East 5.8 mph - N/A   Clear
9:53 AM 43.0 °F 39.5 °F 30.9 °F 62% 30.25 in 10.0 mi East 5.8 mph - N/A   Clear
10:53 AM 48.0 °F - 33.1 °F 56% 30.25 in 10.0 mi SE 5.8 mph - N/A   Clear
11:53 AM 52.0 °F - 33.1 °F 49% 30.25 in 10.0 mi Variable 3.5 mph - N/A   Clear
12:53 PM 57.0 °F - 34.0 °F 42% 30.22 in 10.0 mi East 9.2 mph - N/A   Clear
1:53 PM 57.9 °F - 34.0 °F 41% 30.21 in 10.0 mi Variable 4.6 mph - N/A   Clear
2:53 PM 61.0 °F - 34.0 °F 36% 30.18 in 10.0 mi Variable 4.6 mph - N/A   Clear
3:53 PM 63.0 °F - 34.0 °F 34% 30.17 in 10.0 mi NE 4.6 mph - N/A   Clear
4:53 PM 62.1 °F - 34.0 °F 35% 30.17 in 10.0 mi ESE 6.9 mph - N/A   Scattered Clouds
5:53 PM 61.0 °F - 33.1 °F 35% 30.16 in 10.0 mi Calm Calm - N/A   Mostly Cloudy
6:53 PM 60.1 °F - 35.1 °F 39% 30.16 in 10.0 mi East 6.9 mph - N/A   Scattered Clouds
7:53 PM 57.0 °F - 36.0 °F 45% 30.18 in 10.0 mi East 6.9 mph - N/A   Mostly Cloudy
8:53 PM 55.9 °F - 37.0 °F 49% 30.17 in 10.0 mi ESE 9.2 mph - N/A   Mostly Cloudy
9:53 PM 54.0 °F - 37.0 °F 53% 30.20 in 10.0 mi ENE 5.8 mph - N/A   Mostly Cloudy
10:53 PM 50.0 °F - 37.0 °F 61% 30.21 in 10.0 mi ENE 6.9 mph - N/A   Mostly Cloudy
11:53 PM 50.0 °F - 37.9 °F 63% 30.22 in 10.0 mi East 8.1 mph - N/A   Clear